Bellmunt





Hora UTC 13:10
Temperatura 8.4 ºC
Humitat 74.0 %
Pressió 1025.5 hPa
Pluja 0.0 mm
Velocitat vent 0.0 km/h
Direcció vent W

Dades diàries 2021-03-01



Hora UTC (hivern +1h; estiu +2h)
Temperatura (ºC) Humitat (%) Pressió (hPa) Velocitat vent (km/h) Precipitació (mm)
Hora UTC Aire Humitat Pressió Vel. Dir. Vel. Max Dir. Intent. màx 5 min.
00:05 2.8 88.0 1025.5 3.2 E 3.2 0.0
00:10 2.8 88.0 1025.5 0.0 ESE 16.1 0.0
00:15 2.9 88.0 1025.5 1.6 ESE 17.7 0.0
00:20 2.8 88.0 1025.5 0.0 ESE 17.7 0.0
00:25 2.9 88.0 1025.6 6.4 E 17.7 0.0
00:30 2.9 88.0 1025.5 3.2 E 19.3 0.0
00:35 2.8 88.0 1025.5 0.0 SSE 19.3 0.0
00:40 2.8 88.0 1025.6 4.8 ESE 17.7 0.0
00:45 2.7 88.0 1025.6 6.4 E 24.1 0.0
00:50 2.7 88.0 1025.4 1.6 ENE 24.1 0.0
00:55 2.7 88.0 1025.4 11.3 E 22.5 0.0
01:00 2.7 88.0 1025.4 0.0 ENE 20.9 0.0
01:05 2.7 88.0 1025.4 0.0 E 20.9 0.0
01:10 2.7 87.0 1025.5 0.0 ENE 9.7 0.0
01:15 2.7 87.0 1025.4 0.0 E 16.1 0.0
01:20 2.7 87.0 1025.4 0.0 E 16.1 0.0
01:25 2.7 87.0 1025.4 0.0 ENE 14.5 0.0
01:30 2.7 87.0 1025.3 0.0 E 16.1 0.0
01:35 2.6 87.0 1025.3 3.2 E 16.1 0.0
01:40 2.6 87.0 1025.2 3.2 E 14.5 0.0
01:45 2.6 87.0 1025.3 4.8 E 14.5 0.0
01:50 2.6 87.0 1025.3 0.0 E 9.7 0.0
01:55 2.5 88.0 1025.3 0.0 E 20.9 0.0
02:00 2.5 87.0 1025.4 0.0 ESE 11.3 0.0
02:05 2.5 87.0 1025.4 0.0 NNE 14.5 0.0
02:10 2.4 87.0 1025.5 0.0 E 14.5 0.0
02:15 2.4 88.0 1025.4 0.0 ENE 11.3 0.0
02:20 2.3 88.0 1025.3 0.0 NNE 12.9 0.0
02:25 2.3 89.0 1025.3 0.0 NE 14.5 0.0
02:30 2.2 89.0 1025.3 0.0 E 14.5 0.0
02:35 2.2 90.0 1025.3 0.0 ENE 12.9 0.0
02:40 2.1 90.0 1025.3 0.0 E 9.7 0.0
02:45 2.1 91.0 1025.4 0.0 NE 14.5 0.0
02:50 2.1 91.0 1025.4 0.0 ENE 14.5 0.0
02:55 2.1 91.0 1025.3 0.0 ENE 16.1 0.0
03:00 2.0 91.0 1025.2 1.6 ENE 16.1 0.0
03:05 2.0 91.0 1025.2 0.0 NE 12.9 0.0
03:10 2.0 91.0 1025.2 19.3 ENE 19.3 0.0
03:15 1.9 91.0 1025.3 3.2 ENE 24.1 0.0
03:20 1.8 91.0 1025.2 0.0 ENE 24.1 0.0
03:25 1.8 92.0 1025.2 0.0 ENE 14.5 0.0
03:30 1.8 91.0 1025.3 0.0 ENE 20.9 0.0
03:35 1.8 92.0 1025.3 0.0 ENE 20.9 0.0
03:40 1.7 92.0 1025.3 6.4 ENE 20.9 0.0
03:45 1.8 92.0 1025.2 11.3 NE 17.7 0.0
03:50 1.8 92.0 1025.2 11.3 ENE 24.1 0.0
03:55 1.9 91.0 1025.2 8.0 ENE 24.1 0.0
04:00 1.9 91.0 1025.1 19.3 ENE 27.4 0.0
04:05 1.9 91.0 1025.2 1.6 ENE 29.0 0.0
04:10 2.0 90.0 1025.1 1.6 E 29.0 0.0
04:15 1.9 90.0 1025.3 14.5 ENE 25.7 0.0
04:20 2.0 90.0 1025.2 14.5 ENE 25.7 0.0
04:25 2.1 89.0 1025.3 0.0 E 25.7 0.0
04:30 2.1 89.0 1025.3 17.7 E 27.4 0.0
04:35 2.1 89.0 1025.2 24.1 ENE 27.4 0.0
04:40 2.1 89.0 1025.3 6.4 E 27.4 0.0
04:45 1.9 89.0 1025.2 12.9 E 25.7 0.0
04:50 1.9 89.0 1025.4 3.2 NE 24.1 0.0
04:55 1.8 89.0 1025.3 0.0 SE 12.9 0.0
05:00 1.8 89.0 1025.4 1.6 E 17.7 0.0
05:05 1.8 89.0 1025.3 22.5 ENE 24.1 0.0
05:10 1.8 89.0 1025.4 24.1 ENE 25.7 0.0
05:15 1.7 89.0 1025.5 0.0 NNW 25.7 0.0
05:20 1.6 90.0 1025.5 0.0 ESE 24.1 0.0
05:25 1.6 90.0 1025.4 11.3 ESE 27.4 0.0
05:30 1.8 90.0 1025.5 14.5 E 30.6 0.0
05:35 2.0 90.0 1025.4 22.5 E 30.6 0.0
05:40 2.4 90.0 1025.7 0.0 E 30.6 0.0
05:45 2.7 89.0 1025.6 24.1 ESE 35.4 0.0
05:50 2.8 88.0 1025.6 0.0 E 35.4 0.0
05:55 2.8 89.0 1025.5 6.4 SE 32.2 0.0
06:00 2.9 89.0 1025.5 9.7 ESE 33.8 0.0
06:05 3.0 88.0 1025.6 4.8 ESE 33.8 0.0
06:10 2.9 88.0 1025.6 17.7 ESE 29.0 0.0
06:15 3.0 88.0 1025.5 4.8 SSE 32.2 0.0
06:20 3.0 88.0 1025.6 0.0 E 32.2 0.0
06:25 2.9 88.0 1025.7 1.6 ESE 25.7 0.0
06:30 2.9 88.0 1025.7 4.8 E 24.1 0.0
06:35 3.0 88.0 1025.7 0.0 ESE 32.2 0.0
06:40 3.1 88.0 1025.8 0.0 E 32.2 0.0
06:45 3.1 88.0 1025.8 0.0 ESE 30.6 0.0
06:50 3.1 87.0 1025.9 0.0 E 17.7 0.0
06:55 3.1 87.0 1026.0 0.0 ENE 17.7 0.0
07:00 3.0 88.0 1026.1 0.0 E 4.8 0.0
07:05 3.1 87.0 1026.1 0.0 ENE 4.8 0.0
07:10 3.2 87.0 1026.2 0.0 E 3.2 0.0
07:15 3.2 87.0 1026.2 0.0 E 9.7 0.0
07:20 3.2 87.0 1026.2 1.6 ESE 12.9 0.0
07:25 3.3 88.0 1026.2 12.9 E 12.9 0.0
07:30 3.4 88.0 1026.3 0.0 SSE 20.9 0.0
07:35 3.5 87.0 1026.3 0.0 ESE 19.3 0.0
07:40 3.6 87.0 1026.3 0.0 ESE 19.3 0.0
07:45 3.7 87.0 1026.4 6.4 SSE 11.3 0.0
07:50 3.9 87.0 1026.4 6.4 SE 12.9 0.0
07:55 3.9 87.0 1026.3 0.0 W 12.9 0.0
08:00 4.2 86.0 1026.3 0.0 SE 12.9 0.0
08:05 4.4 86.0 1026.4 3.2 SE 16.1 0.0
08:10 4.6 85.0 1026.3 0.0 ESE 9.7 0.0
08:15 4.6 84.0 1026.3 0.0 ESE 11.3 0.0
08:20 4.8 85.0 1026.1 0.0 ESE 11.3 0.0
08:25 4.8 84.0 1026.1 1.6 ESE 8.0 0.0
08:30 4.7 84.0 1026.2 0.0 SSW 6.4 0.0
08:35 4.8 84.0 1026.2 1.6 S 16.1 0.0
08:40 4.8 84.0 1026.2 9.7 S 16.1 0.0
08:45 4.9 85.0 1026.3 1.6 SSE 14.5 0.0
08:50 4.8 84.0 1026.3 4.8 SSE 12.9 0.0
08:55 4.8 85.0 1026.3 0.0 ESE 12.9 0.0
09:00 4.9 85.0 1026.3 1.6 SSE 14.5 0.0
09:05 4.9 84.0 1026.2 0.0 E 6.4 0.0
09:10 5.2 83.0 1026.2 0.0 SE 11.3 0.0
09:15 5.1 84.0 1026.2 3.2 SW 11.3 0.0
09:20 5.3 83.0 1026.2 0.0 S 11.3 0.0
09:25 5.4 83.0 1026.4 0.0 SE 12.9 0.0
09:30 5.4 82.0 1026.3 1.6 SE 11.3 0.0
09:35 5.6 83.0 1026.3 0.0 S 9.7 0.0
09:40 5.7 83.0 1026.4 0.0 SW 8.0 0.0
09:45 5.4 83.0 1026.4 3.2 SSW 9.7 0.0
09:50 5.2 85.0 1026.4 0.0 SSW 11.3 0.0
09:55 5.0 85.0 1026.4 0.0 S 11.3 0.0
10:00 4.9 85.0 1026.4 0.0 S 11.3 0.0
10:05 4.9 86.0 1026.4 1.6 SSW 6.4 0.0
10:10 5.3 85.0 1026.4 1.6 SW 12.9 0.0
10:15 5.2 85.0 1026.4 0.0 SSW 12.9 0.0
10:20 5.1 87.0 1026.4 0.0 S 11.3 0.0
10:25 5.4 86.0 1026.4 0.0 SW 11.3 0.0
10:30 5.4 84.0 1026.5 1.6 SW 9.7 0.0
10:35 5.4 85.0 1026.5 0.0 S 9.7 0.0
10:40 5.9 84.0 1026.5 4.8 SW 8.0 0.0
10:45 6.2 82.0 1026.4 0.0 SSW 9.7 0.0
10:50 6.8 83.0 1026.4 1.6 WNW 9.7 0.0
10:55 6.9 81.0 1026.4 1.6 S 6.4 0.0
11:00 6.3 82.0 1026.4 0.0 S 14.5 0.0
11:05 6.7 83.0 1026.3 0.0 WSW 14.5 0.0
11:10 6.4 82.0 1026.3 0.0 S 16.1 0.0
11:15 6.1 82.0 1026.2 0.0 S 17.7 0.0
11:20 6.6 84.0 1026.2 4.8 SSW 17.7 0.0
11:25 6.7 84.0 1026.2 0.0 W 17.7 0.0
11:30 6.7 83.0 1026.1 0.0 SSW 22.5 0.0
11:35 6.3 84.0 1026.1 6.4 ESE 22.5 0.0
11:40 6.5 83.0 1026.1 0.0 SSW 20.9 0.0
11:45 6.6 83.0 1026.1 6.4 S 12.9 0.0
11:50 6.9 83.0 1026.1 3.2 SW 12.9 0.0
11:55 6.7 84.0 1026.1 1.6 SSW 8.0 0.0
12:00 7.3 84.0 1026.1 6.4 SSW 9.7 0.0
12:05 7.7 81.0 1026.0 0.0 SSW 11.3 0.0
12:10 7.8 81.0 1025.9 4.8 SW 11.3 0.0
12:15 7.9 80.0 1025.9 0.0 SSW 11.3 0.0
12:20 7.5 81.0 1025.9 0.0 WSW 8.0 0.0
12:25 8.1 79.0 1025.9 0.0 SSW 6.4 0.0
12:30 8.3 79.0 1025.7 0.0 SW 1.6 0.0
12:35 8.2 79.0 1025.7 0.0 SW 1.6 0.0
12:40 8.2 78.0 1025.6 0.0 SW 1.6 0.0
12:45 8.5 77.0 1025.6 0.0 WSW 8.0 0.0
12:50 8.2 79.0 1025.7 1.6 WSW 8.0 0.0
12:55 8.2 79.0 1025.5 1.6 SW 11.3 0.0
13:00 8.4 77.0 1025.5 0.0 S 11.3 0.0
13:05 8.7 76.0 1025.5 0.0 E 12.9 0.0
13:10 8.4 74.0 1025.5 0.0 W 12.9 0.0
Màxima 8.7 92.0 1026.5 24.1 ESE 35.4 0.0
Mínima 1.6 74.0 1025.1
Total 0.0